Погода в Дубровах

Россия / Псковская область     56°58′41″N   29°12′11″E
темп.,
°C
ветер,
м/с
пор.,
м/с
влажн.,
%
обл.,
%
осадки,
мм/ч
давл.,
гПа
погр.,
м
17 августа, ср
ср1700:00+20ююв2107799 0.0 1018222
03:00+19юв2280100 0.0 101837
06:00+17вюв227983 0.0 101837
09:00+22вюв366133 0.0 1017325
12:00+27вюв354044 0.0 10171065
15:00+29вюв34385 0.0 10161794
18:00+28в24505 0.0 1015226
21:00+21юв127187 0.0 101611
18 августа, чт
чт1800:00+19юв117121 0.0 101611
03:00+18ююз117794 0.0 101715
06:00+17юв11792 0.0 101711
09:00+23вюв23621 0.0 1018285
12:00+28юв23425 0.0 10181162
15:00+29в23395 0.0 10181830
18:00+28всв24515 0.0 1018382
21:00+21в22716 0.0 101927
19 августа, пт
пт1900:00+19вюв23715 0.0 101947
03:00+17в24705 0.0 102074
06:00+16вюв23760 0.0 102148
09:00+22юв39553 0.0 1021380
12:00+27вюв47430 0.0 10211254
15:00+28в46360 0.0 10202043
18:00+26вюв36450 0.0 1020606
21:00+22юв4125952 0.0 1021544
20 августа, сб
сб2000:00+21юв3116392 0.1 1021620
03:00+18юв311690 0.1 1022405
06:00+14вюв29890 0.0 1022249
09:00+19вюв48623 0.0 1021669
12:00+23вюв46490 0.0 10201243
15:00+26юв47445 0.0 10191741
18:00+25вюв47480 0.0 10181286
21:00+18вюв39707 0.0 1019172
21 августа, вс
вс2100:00+17юв3117536 0.0 1018273
03:00+16юв398210 0.0 1018217
06:00+14вюв27895 0.0 1018151
09:00+21юв49605 0.0 1017426
12:00+26ююв47435 0.0 10171109
15:00+28ююв573685 0.0 10161664
18:00+26ююв484580 0.0 10151166
21:00+23ююв512535 0.0 1016891